Location: Cz?stochówka
(50.8142°N, 19.0915°E)
Time: 08:48:01
(UTC+00:00)

Cosmos 1844 Rocket - Pass Details

Date: 13 January 2026
Orbit: 822 x 845 km, 71.0° (Epoch: 17 February)

Event Time Altitude Azimuth Distance (km) Brightness Sun altitude
Exits shadow 05:04:37 17° 315° (NW) 2,001 4.1 -14.6°
Maximum altitude 05:05:36 18° 328° (NNW) 1,965 4.2 -14.4°
Drops below altitude 10° 05:09:24 10° 10° (N) 2,475 5.1 -13.9°
Sets 05:12:43 0° 30° (NNE) 3,415 6.0 -13.4°
